Wind_Speed
15 15 14 12 12 13 12 12 12 12 11 10 9 9 10 9 8 7 7 7 7 8 7 7 7 6 6 6 5 5 5 4 3 3 3 4 4 4 3 3 4 4 4 4 5 6 7 7 8
15 14 13 13 13 13 13 13 13 12 11 10 9 9 9 9 9 8 7 7 7 8 7 7 7 6 6 6 6 6 6 6 5 4 4 4 4 4 4 4 4 4 4 4 4 6 6 7 7
16 14 14 14 15 14 14 14 13 12 12 10 9 9 9 10 10 9 7 7 8 8 7 8 7 6 6 7 7 7 7 6 6 5 4 4 4 4 4 4 4 4 4 4 4 6 6 5 4
16 15 15 16 16 16 15 14 13 12 11 10 10 9 9 10 10 9 8 8 8 8 8 8 7 7 7 8 7 7 7 6 6 5 4 4 4 4 4 4 3 3 4 4 4 5 5 4 4
15 16 17 17 16 16 15 15 13 13 11 10 10 9 10 10 10 10 10 9 9 9 8 7 8 8 8 7 7 6 6 6 6 5 5 4 5 5 4 4 4 4 4 3 4 4 4 4 4
15 15 16 15 15 16 16 16 14 13 13 12 11 10 10 10 10 10 10 10 9 9 9 9 8 8 8 7 7 6 6 6 6 5 5 6 6 6 5 5 4 4 4 3 3 4 4 4 4
14 15 16 15 15 16 17 16 15 13 13 12 12 11 11 11 10 10 10 10 10 10 10 10 9 8 7 7 7 6 6 6 6 6 6 7 7 6 6 5 4 3 4 4 4 4 3 3 3
13 14 15 15 15 16 16 16 15 14 13 12 13 13 12 11 11 10 10 9 9 9 9 9 9 9 8 7 7 6 7 7 7 6 6 7 7 6 6 5 4 4 4 4 3 2 2 2 2
13 14 15 15 14 14 15 15 14 14 13 13 13 13 12 12 11 10 10 10 10 10 10 10 9 9 9 8 8 8 8 7 7 7 6 7 7 7 6 6 5 4 4 4 3 2 2 2 2
12 13 13 14 13 14 15 15 14 15 14 14 14 13 12 12 11 11 10 10 10 10 10 11 10 9 10 10 10 10 9 8 7 7 7 7 7 7 6 6 5 5 4 4 4 3 3 2 2
10 13 13 14 14 15 16 16 15 15 15 14 14 13 12 12 11 11 10 10 10 10 10 10 10 10 9 10 11 11 10 10 9 8 8 7 7 7 6 6 5 5 5 4 4 5 4 3 2
10 12 12 13 14 14 15 17 16 16 14 14 14 13 12 12 12 11 11 10 9 9 10 10 10 9 9 10 11 10 10 9 9 9 8 7 6 5 5 5 6 6 5 5 4 4 4 4 3
9 11 11 12 12 13 13 15 15 15 14 14 14 13 12 12 12 12 11 11 10 10 10 10 10 10 10 9 9 9 9 9 9 9 9 8 7 6 6 6 5 5 4 4 5 5 5 4 3
8 9 9 9 11 11 12 13 14 14 14 13 12 12 12 12 13 12 12 11 11 10 10 10 9 9 9 9 9 8 8 8 8 8 8 8 7 6 6 7 6 5 5 5 5 5 5 5 4
7 9 8 8 8 9 10 11 13 13 13 13 12 12 13 13 13 12 12 11 11 11 10 10 10 9 9 8 8 8 7 7 8 8 8 8 7 7 6 6 6 6 5 5 5 5 5 4 3
6 7 7 6 6 7 8 10 11 12 12 11 12 12 12 12 12 12 12 11 11 10 10 10 9 8 9 9 8 8 7 7 7 7 8 8 8 7 6 6 6 6 5 5 6 5 5 4 4
4 5 5 5 5 6 7 9 10 11 10 10 11 11 12 12 12 11 11 11 11 11 9 9 9 9 8 8 8 7 6 6 7 7 7 7 7 7 6 5 5 5 5 5 5 5 5 5 4
3 4 3 2 3 4 6 7 8 9 8 8 9 10 10 10 10 10 10 10 10 11 10 9 8 8 7 7 7 7 6 6 6 6 6 6 6 5 5 4 5 5 5 5 5 5 5 6 5
3 3 2 0 2 3 4 5 6 6 6 7 7 8 8 8 9 9 10 10 9 10 10 9 9 8 8 7 7 7 7 7 6 6 6 6 5 5 5 5 6 6 6 6 6 6 6 7 6
5 4 3 3 1 2 2 3 4 4 6 5 6 6 6 7 7 7 8 8 8 8 8 8 9 8 7 7 7 7 7 7 7 7 7 6 6 5 5 5 5 6 6 7 7 7 7 7 7
5 5 5 4 3 1 2 2 3 3 5 4 5 5 5 5 6 6 6 7 7 7 7 7 7 7 6 6 7 7 7 6 7 7 7 7 6 6 6 6 6 6 7 7 8 8 8 8 8
4 5 5 6 4 3 4 4 3 3 3 4 5 5 4 4 5 5 5 6 7 7 7 7 7 6 6 6 6 6 5 6 6 6 6 6 7 7 8 8 7 7 8 8 8 8 8 8 8
6 5 5 6 6 5 5 5 3 3 3 4 5 4 3 4 3 4 4 5 6 6 6 7 6 6 5 5 5 6 5 6 6 5 6 6 7 8 9 9 8 8 8 9 9 8 9 8 8
9 9 9 8 9 8 6 6 4 4 3 5 6 5 5 4 3 3 3 3 4 5 5 6 6 6 5 5 5 5 5 6 6 6 5 6 7 8 8 9 8 9 9 9 10 10 10 9 9
12 11 11 11 11 10 8 8 5 4 5 5 5 5 5 4 3 3 3 3 3 4 5 6 5 5 5 5 5 5 5 5 6 6 6 6 7 8 8 9 9 9 9 10 10 10 11 10 10
11 12 12 12 12 10 9 8 6 5 6 6 6 5 6 6 4 3 3 4 3 4 5 6 5 5 5 5 4 5 5 5 5 6 6 7 8 8 9 9 10 10 10 11 11 11 11 11 11
13 13 14 14 13 13 11 9 8 8 8 7 7 7 7 6 5 5 4 3 4 5 5 6 6 5 5 5 5 5 6 6 7 7 8 8 9 9 10 10 11 12 12 12 12 12 12 12 12
15 14 15 15 16 15 14 11 9 10 10 8 9 8 8 8 6 5 5 5 4 5 6 6 6 6 6 6 6 7 7 7 8 8 8 9 10 10 11 11 12 13 13 13 13 13 12 12 12
16 16 16 16 17 16 16 13 12 11 10 10 10 10 9 8 6 6 7 7 6 6 7 7 7 7 7 7 8 8 8 9 9 9 10 10 11 12 13 13 14 14 14 14 14 14 14 14 14
18 18 18 18 18 17 17 15 13 13 12 13 12 11 10 8 6 8 9 9 9 9 8 9 9 9 9 9 10 10 10 11 11 11 11 11 12 13 14 15 15 15 15 15 14 15 15 15 15
Wind_Direction
72 69 66 64 59 60 56 60 61 66 67 64 61 60 58 57 58 62 70 74 71 75 75 72 75 77 77 78 77 81 89 93 102 113 122 124 123 120 118 128 133 134 129 130 137 143 152 159 166
68 64 60 60 54 55 57 61 62 69 69 64 61 61 59 61 60 62 70 74 73 74 73 70 69 74 80 80 81 79 87 90 90 98 107 113 123 116 114 121 127 134 134 131 131 142 152 157 162
64 60 58 57 53 50 54 58 61 65 64 63 61 61 61 63 62 61 66 75 73 73 71 70 67 69 78 84 84 85 87 90 91 94 100 115 123 125 129 123 118 121 126 129 135 152 154 152 155
66 61 58 53 51 50 53 57 59 63 62 62 62 60 61 65 65 61 61 71 74 75 69 65 68 72 80 87 85 81 85 87 91 91 91 103 110 119 118 117 118 122 123 117 130 156 157 150 149
62 58 54 53 51 51 53 56 58 61 60 59 59 60 64 68 65 61 58 64 69 76 74 66 71 77 82 81 81 79 83 87 91 89 90 92 94 92 103 110 106 104 109 107 118 154 156 146 151
62 57 52 48 48 53 54 56 62 65 60 58 58 61 66 68 67 64 59 60 62 71 77 75 71 77 82 77 80 83 86 87 92 89 82 92 92 91 95 98 98 102 102 92 104 135 151 132 140
62 55 49 49 50 52 55 57 60 65 61 59 60 63 65 67 67 64 59 60 62 66 72 74 74 71 75 74 77 79 87 87 92 90 86 94 95 93 97 97 99 100 87 84 111 127 139 145 135
64 56 52 50 51 50 54 55 57 59 58 59 61 63 63 66 66 63 61 62 62 61 65 76 77 76 75 74 73 73 83 87 93 92 90 93 90 90 97 98 95 95 90 89 108 117 130 138 124
62 60 58 53 51 54 56 56 56 57 52 55 61 63 63 64 65 65 65 66 65 64 63 66 76 78 80 75 71 77 83 86 88 89 90 94 93 89 91 92 84 79 82 90 99 104 115 111 110
67 64 62 59 56 58 58 59 59 58 53 52 55 56 60 62 63 66 66 64 68 67 65 62 60 67 70 73 77 79 82 84 86 84 89 95 96 89 89 86 85 84 82 87 90 95 88 80 80
72 66 62 61 55 56 57 59 59 57 55 52 54 55 60 61 62 66 69 68 70 71 68 66 62 65 66 67 71 76 81 84 86 83 83 89 92 90 88 86 84 82 87 87 85 82 79 72 71
74 76 66 58 54 54 57 57 55 56 57 55 54 54 57 59 60 64 67 68 70 71 72 71 67 65 65 69 70 69 71 74 76 79 78 80 83 82 77 78 84 84 81 71 67 61 57 64 63
78 80 70 62 58 52 51 54 52 52 54 55 53 53 54 56 57 62 66 67 70 71 71 72 68 68 68 68 66 69 70 69 69 69 67 65 63 64 65 70 81 73 66 51 49 37 39 43 35
68 75 70 60 55 52 47 48 48 46 48 51 53 54 56 57 59 62 66 67 67 68 69 68 68 67 68 69 67 69 74 76 77 75 72 67 65 69 72 72 69 63 57 53 47 37 31 35 30
77 81 72 64 53 51 43 42 43 43 45 47 51 56 59 59 59 60 58 61 66 67 68 68 66 64 65 67 68 65 70 79 78 76 69 66 64 65 70 70 63 54 52 43 38 30 28 26 17
78 91 74 68 53 47 41 37 36 41 45 47 49 53 55 55 56 56 56 59 63 65 63 59 57 58 63 62 65 67 67 70 66 66 63 60 58 58 59 57 49 45 37 29 25 15 8 1 349
73 99 89 75 56 43 38 38 39 38 41 46 48 53 55 53 54 54 54 54 56 58 56 53 52 51 58 62 70 71 70 68 64 60 59 56 54 51 51 46 34 26 20 20 13 6 359 348 339
83 105 102 66 46 38 33 31 30 31 44 49 49 50 51 50 51 51 50 47 50 54 55 52 52 50 61 65 64 62 61 59 59 54 52 49 50 46 38 30 27 19 14 11 3 360 356 348 342
160 167 168 119 4 15 26 17 16 26 43 52 50 46 43 45 50 47 41 41 46 47 47 50 49 53 61 63 56 51 53 51 48 43 46 47 45 38 28 21 17 12 5 360 356 352 344 339 337
193 188 185 194 250 354 352 6 3 23 31 44 47 45 43 37 43 42 37 37 42 47 46 46 45 53 62 61 53 48 46 47 45 43 42 40 37 29 17 10 6 3 359 353 349 344 336 332 329
216 204 188 192 210 286 321 339 348 8 13 19 21 27 36 30 26 29 35 35 36 44 45 44 43 53 56 52 46 44 43 40 36 35 36 32 24 14 9 7 4 1 353 347 343 341 337 330 325
225 218 197 206 221 250 264 295 316 330 342 351 359 11 29 31 21 16 29 33 33 36 38 39 41 42 42 42 41 36 36 29 26 25 24 21 17 12 5 5 3 1 357 349 344 341 338 334 328
229 235 229 219 235 256 255 262 256 282 309 328 347 359 9 14 16 18 29 35 32 28 32 32 33 33 33 32 29 27 24 22 20 19 14 10 5 3 1 359 357 357 356 351 345 342 338 334 332
227 238 249 242 243 251 254 246 229 256 298 317 329 341 350 348 345 350 8 25 26 20 22 23 25 24 20 18 18 17 18 17 14 11 5 1 358 355 354 353 352 351 351 347 345 343 338 333 330
230 234 237 243 246 249 249 243 244 252 276 302 312 317 329 333 332 338 356 12 15 12 12 13 13 10 7 4 5 4 4 3 2 355 352 353 349 348 348 350 350 346 345 341 337 334 333 332 326
235 241 245 253 255 260 251 250 248 249 262 274 283 291 307 313 320 322 335 348 359 359 358 0 359 356 355 353 353 353 353 349 347 344 342 341 338 337 337 341 341 339 338 336 334 330 327 324 323
236 243 250 260 263 262 258 259 248 244 253 261 267 278 297 309 306 304 314 329 342 341 340 345 344 339 336 337 339 339 338 336 330 330 332 330 328 327 327 330 332 331 331 331 331 329 326 321 318
233 242 248 254 265 262 258 260 254 254 259 260 262 273 282 293 291 298 306 316 323 323 323 323 326 324 322 325 329 327 324 324 323 322 321 320 323 322 321 322 323 324 324 324 325 325 324 320 317
231 236 244 252 258 258 257 258 256 258 258 260 264 272 277 282 283 289 295 300 305 305 310 310 313 313 316 317 315 314 314 317 315 313 314 315 316 318 319 318 318 317 317 318 319 319 320 317 315
232 231 239 249 254 255 254 252 256 259 260 264 265 262 263 266 276 287 290 296 298 294 294 296 299 302 305 306 306 307 306 305 310 305 308 311 312 315 317 317 316 315 315 314 315 316 317 316 314
Height
5896 5895 5895 5896 5895 5894 5893 5893 5892 5891 5891 5890 5890 5889 5889 5889 5889 5890 5887 5886 5885 5884 5884 5883 5882 5882 5882 5882 5882 5881 5881 5881 5881 5881 5881 5882 5882 5882 5882 5882 5882 5882 5882 5882 5882 5882 5882 5883 5883
5898 5897 5898 5897 5895 5894 5894 5893 5893 5893 5893 5891 5891 5891 5890 5889 5889 5888 5887 5887 5886 5885 5885 5884 5884 5884 5883 5883 5883 5882 5882 5882 5882 5882 5882 5882 5882 5883 5883 5883 5883 5883 5882 5883 5883 5883 5883 5883 5884
5900 5899 5900 5898 5896 5896 5895 5895 5894 5894 5893 5893 5893 5892 5891 5891 5890 5889 5889 5888 5887 5886 5886 5885 5885 5885 5884 5884 5884 5884 5883 5883 5883 5883 5883 5883 5883 5883 5883 5883 5883 5883 5883 5883 5884 5883 5883 5884 5885
5902 5902 5901 5900 5898 5897 5897 5896 5895 5895 5895 5894 5894 5893 5892 5892 5891 5890 5890 5889 5888 5887 5887 5887 5887 5886 5886 5885 5885 5885 5885 5884 5884 5884 5884 5884 5884 5884 5884 5884 5884 5884 5884 5884 5884 5884 5884 5885 5886
5904 5903 5902 5900 5900 5899 5898 5897 5897 5897 5896 5896 5895 5895 5894 5893 5892 5891 5890 5890 5889 5889 5889 5889 5888 5887 5887 5887 5886 5886 5886 5886 5885 5885 5885 5884 5884 5884 5884 5885 5885 5885 5885 5884 5884 5884 5885 5885 5885
5906 5904 5903 5902 5902 5901 5900 5899 5899 5899 5898 5897 5897 5896 5895 5894 5893 5893 5892 5891 5890 5890 5890 5890 5889 5889 5888 5888 5887 5887 5887 5887 5887 5886 5886 5885 5885 5885 5885 5885 5885 5885 5885 5885 5884 5884 5885 5886 5886
5908 5906 5905 5905 5904 5903 5903 5902 5902 5901 5900 5899 5898 5897 5896 5896 5895 5894 5894 5893 5892 5892 5891 5890 5890 5890 5890 5889 5889 5888 5888 5888 5888 5887 5887 5886 5886 5886 5886 5886 5886 5886 5886 5886 5885 5885 5886 5886 5886
5908 5908 5907 5907 5906 5905 5905 5904 5903 5903 5902 5901 5900 5899 5898 5898 5897 5896 5895 5895 5894 5894 5893 5892 5892 5892 5891 5891 5890 5889 5889 5889 5889 5888 5888 5887 5887 5887 5887 5887 5887 5887 5887 5887 5887 5886 5886 5887 5887
5911 5911 5909 5909 5908 5908 5907 5906 5905 5904 5904 5902 5902 5901 5900 5899 5899 5898 5897 5897 5896 5895 5895 5894 5893 5893 5892 5892 5891 5891 5890 5890 5890 5890 5889 5889 5888 5888 5888 5888 5888 5888 5888 5887 5887 5887 5887 5887 5887
5913 5912 5912 5911 5911 5910 5909 5908 5907 5906 5905 5904 5903 5902 5902 5901 5901 5900 5899 5899 5898 5897 5897 5896 5895 5894 5894 5893 5893 5892 5892 5892 5891 5891 5890 5890 5890 5890 5889 5889 5889 5888 5888 5888 5888 5888 5888 5888 5887
5914 5913 5913 5912 5912 5911 5911 5910 5909 5908 5907 5906 5905 5905 5904 5903 5902 5901 5901 5900 5900 5899 5899 5898 5897 5896 5896 5895 5894 5894 5893 5893 5893 5893 5892 5892 5891 5891 5890 5890 5890 5890 5889 5889 5889 5889 5889 5888 5888
5915 5915 5915 5914 5913 5913 5913 5912 5911 5910 5910 5909 5907 5906 5906 5905 5904 5903 5903 5902 5901 5901 5900 5900 5899 5898 5898 5897 5896 5896 5895 5895 5894 5894 5894 5893 5893 5892 5892 5892 5891 5891 5891 5890 5890 5889 5889 5889 5888
5917 5917 5916 5916 5915 5915 5914 5914 5913 5912 5911 5910 5909 5908 5907 5906 5906 5905 5904 5903 5903 5902 5901 5901 5901 5900 5899 5899 5898 5898 5897 5897 5896 5895 5895 5894 5894 5893 5893 5893 5892 5892 5892 5891 5891 5890 5890 5889 5888
5918 5918 5918 5917 5917 5916 5916 5916 5915 5914 5913 5912 5912 5911 5910 5909 5908 5907 5906 5905 5904 5903 5903 5902 5902 5901 5901 5900 5900 5899 5899 5898 5897 5897 5896 5896 5895 5894 5894 5893 5893 5893 5893 5892 5892 5891 5890 5890 5889
5918 5919 5919 5919 5918 5918 5918 5918 5917 5916 5915 5914 5914 5913 5912 5910 5909 5909 5908 5907 5906 5905 5905 5904 5903 5903 5902 5902 5901 5901 5900 5899 5899 5898 5897 5897 5896 5895 5895 5895 5895 5894 5894 5893 5892 5892 5891 5890 5890
5920 5921 5921 5920 5919 5920 5921 5920 5919 5917 5917 5916 5916 5914 5913 5912 5911 5910 5909 5908 5908 5907 5906 5905 5904 5903 5903 5902 5902 5901 5901 5901 5900 5899 5898 5898 5897 5896 5896 5896 5895 5895 5894 5894 5893 5892 5891 5890 5889
5920 5921 5921 5921 5921 5921 5921 5921 5920 5919 5918 5918 5917 5916 5915 5914 5913 5912 5911 5910 5909 5908 5907 5906 5905 5904 5904 5903 5903 5902 5902 5901 5901 5900 5899 5899 5898 5897 5897 5896 5896 5895 5894 5893 5892 5891 5890 5889 5888
5920 5920 5920 5921 5921 5921 5921 5921 5921 5920 5920 5919 5919 5918 5917 5916 5915 5914 5913 5911 5910 5909 5908 5907 5906 5905 5904 5904 5904 5903 5902 5902 5901 5901 5900 5899 5899 5898 5897 5897 5896 5895 5894 5893 5892 5891 5889 5888 5887
5920 5920 5920 5921 5921 5920 5920 5920 5921 5920 5920 5920 5919 5919 5918 5917 5916 5915 5914 5913 5911 5910 5909 5908 5907 5906 5905 5905 5904 5903 5903 5902 5902 5901 5900 5900 5899 5898 5897 5896 5896 5895 5894 5892 5891 5889 5888 5887 5886
5919 5919 5919 5920 5920 5920 5920 5920 5920 5920 5920 5920 5920 5919 5919 5918 5917 5916 5915 5914 5913 5911 5910 5909 5908 5907 5906 5906 5905 5904 5903 5903 5902 5901 5901 5900 5899 5898 5897 5896 5895 5894 5893 5891 5890 5888 5887 5886 5884
5918 5918 5919 5920 5919 5919 5920 5920 5920 5920 5920 5920 5920 5919 5918 5918 5918 5917 5915 5914 5913 5912 5911 5910 5909 5908 5907 5906 5905 5904 5904 5903 5902 5902 5901 5900 5899 5898 5897 5896 5895 5893 5892 5890 5889 5887 5885 5884 5882
5916 5917 5918 5919 5919 5918 5919 5919 5919 5918 5919 5919 5919 5919 5918 5918 5917 5916 5915 5914 5913 5913 5912 5911 5909 5908 5907 5907 5906 5905 5904 5903 5903 5902 5901 5900 5899 5898 5896 5895 5894 5892 5891 5889 5887 5885 5884 5882 5880
5916 5917 5917 5918 5918 5918 5918 5918 5918 5917 5917 5918 5918 5918 5917 5917 5916 5916 5915 5914 5913 5912 5911 5910 5909 5908 5907 5907 5906 5905 5904 5903 5902 5901 5901 5900 5898 5897 5896 5894 5893 5891 5889 5888 5885 5883 5882 5880 5878
5915 5916 5915 5915 5916 5917 5917 5917 5917 5916 5916 5916 5916 5916 5916 5916 5915 5915 5914 5913 5913 5912 5911 5910 5909 5908 5907 5906 5906 5905 5904 5903 5902 5901 5900 5899 5898 5897 5895 5894 5892 5890 5888 5886 5884 5882 5880 5878 5876
5912 5913 5914 5914 5914 5915 5915 5915 5915 5914 5914 5914 5914 5915 5914 5915 5914 5914 5913 5912 5912 5911 5910 5909 5908 5908 5907 5906 5905 5904 5904 5903 5902 5901 5900 5898 5897 5896 5894 5892 5891 5889 5887 5885 5882 5880 5878 5876 5874
5909 5911 5912 5912 5912 5913 5913 5912 5914 5913 5912 5912 5912 5912 5913 5913 5912 5912 5912 5911 5910 5910 5909 5909 5908 5907 5906 5905 5904 5904 5903 5902 5901 5899 5898 5897 5896 5894 5892 5891 5889 5887 5885 5883 5880 5878 5876 5874 5872
5907 5908 5909 5910 5909 5910 5910 5911 5911 5910 5910 5910 5910 5910 5910 5911 5911 5911 5910 5910 5909 5909 5908 5907 5906 5905 5905 5904 5903 5902 5902 5901 5899 5898 5897 5896 5894 5893 5891 5889 5887 5885 5883 5880 5878 5875 5873 5871 5869
5904 5905 5906 5906 5906 5906 5907 5908 5908 5907 5907 5908 5908 5908 5908 5909 5909 5909 5909 5908 5908 5907 5907 5906 5905 5904 5903 5902 5901 5901 5900 5899 5898 5897 5895 5894 5892 5890 5889 5887 5885 5882 5880 5878 5875 5873 5870 5868 5866
5900 5901 5901 5902 5903 5903 5903 5906 5905 5904 5904 5905 5905 5905 5906 5906 5906 5907 5907 5906 5906 5905 5905 5904 5904 5902 5901 5900 5900 5899 5898 5897 5896 5895 5893 5892 5890 5888 5886 5884 5882 5879 5877 5875 5872 5870 5867 5865 5862
5896 5896 5898 5899 5899 5899 5900 5904 5901 5901 5901 5901 5902 5902 5903 5903 5904 5904 5904 5904 5904 5903 5903 5903 5902 5901 5900 5899 5898 5896 5895 5894 5893 5892 5890 5889 5887 5885 5883 5881 5878 5876 5873 5871 5868 5866 5864 5861 5859